Simultaneous Nadir Overpasses (SNOs) Predictions

Prediction of SNOs near US between AQUA and NPP Satellite Orbit:

Table of predicted SNOs near US for the next 10.0 days since TLE Epoch: 1/10/2015
Index Date (AQUA) Time (AQUA) AQUA Lat,Lon Date (NPP) Time (NPP) NPP Lat,Lon Distance(km) Time Diff (sec)
1 01/11/2015 06:56:39 20.02, -77.18 01/11/2015 06:51:46 19.94, -76.74 46.62 293
2 01/11/2015 08:31:14 35.55, -97.94 01/11/2015 08:28:49 35.55, -97.94 0.03 145
3 01/11/2015 10:06:06 49.93,-117.71 01/11/2015 10:06:09 50.02,-118.06 27.33 3
4 01/13/2015 21:04:21 49.96,-121.96 01/13/2015 20:56:21 50.03,-121.50 33.19 480
5 01/14/2015 07:19:20 49.94, -76.01 01/14/2015 07:27:22 50.37, -78.25 166.77 482
6 01/16/2015 18:17:35 50.00, -80.27 01/16/2015 18:17:35 49.74, -81.72 107.60 0
7 01/16/2015 19:53:58
